Tracking 30995 objects as of 7-Jul-2025
HD Live streaming from Space Station
objects crossing your sky now

STARLINK-6094

Track STARLINK-6094 now!
10-day predictions
STARLINK-6094 is classified as:


NORAD ID: 56122
Int'l Code: 2023-046AF
Perigee: 565.5 km
Apogee: 567.0 km
Inclination: 43.0 °
Period: 95.8 minutes
Semi major axis: 6937 km
RCS: Unknown
Launch date: March 29, 2023
Source: United States (US)
Launch site: AIR FORCE EASTERN TEST RANGE (AFETR)
Your satellite tracking list
IRNSS 1G
Track 1 satellite(s)




NASA's NSSDC Master Catalog

Two Line Element Set (TLE):
1 56122U 23046AF  25187.63562439  .00000278  00000-0  35678-4 0  9992
2 56122  43.0049  55.5424 0001089 256.4863 103.5858 15.02535476125595
Source of the keplerian elements: AFSPC